Location: Unspecified
(42.5310°N, 0.0000°E)
Time: 03:04:54
(UTC+00:00)

Tiangong 2 - Visible Passes

Search period start: 21 May 2019 00:00
Search period end: 31 May 2019 00:00
Orbit: 379 x 387 km, 42.8° (Epoch: 20 May)

Date Brightness Start Highest point End Pass type
(mag) Time Alt. Az. Time Alt. Az. Time Alt. Az.
21 May 1.8 19:56:55 10° SW 19:59:46 32° SSE 20:02:37 10° E visible
21 May 1.0 21:33:11 10° W 21:36:04 74° W 21:36:04 74° W visible
22 May 0.9 20:33:11 10° WSW 20:36:18 71° SSE 20:39:08 12° E visible
22 May 3.0 22:09:53 10° W 22:11:20 25° W 22:11:20 25° W visible
23 May 1.0 21:09:50 10° W 21:12:58 83° N 21:14:11 34° E visible
24 May 1.0 20:09:47 10° W 20:12:55 88° S 20:16:04 10° E visible
24 May 1.5 21:46:31 10° W 21:49:04 55° W 21:49:04 55° W visible
25 May 1.0 20:46:28 10° W 20:49:36 85° N 20:51:41 19° E visible
25 May 3.7 22:23:14 10° W 22:23:52 15° W 22:23:52 15° W visible
26 May 1.0 21:23:08 10° W 21:26:14 63° SSW 21:26:25 61° S visible
27 May 1.0 20:23:04 10° W 20:26:12 83° S 20:28:57 13° ESE visible
27 May 3.3 21:59:58 10° W 22:01:07 18° WSW 22:01:07 18° WSW visible
28 May 1.6 20:59:45 10° W 21:02:45 43° SSW 21:03:38 33° SSE visible
29 May 1.2 19:59:38 10° W 20:02:45 64° SSW 20:05:51 10° ESE visible
29 May 3.2 21:36:55 10° WSW 21:38:20 16° SW 21:38:20 16° SW visible
30 May 2.3 20:36:26 10° W 20:39:11 28° SSW 20:40:52 17° SSE visible
